Location: Banff
(51.1667°N, 115.5667°W)
Time: 09:42:46
(UTC+00:00)

A-11 Canister half - Pass Details

Date: 28 November 2020
Orbit: 1524 x 1684 km, 47.3° (Epoch: 20 January)

Event Time Altitude Azimuth Distance (km) Brightness Sun altitude
Rises 11:01:50 0° 166° (SSE) 4,925 11.6 -39.6°
Reaches altitude 10° 11:08:54 10° 133° (SE) 3,940 11.4 -38.5°
Maximum altitude 11:10:51 11° 121° (ESE) 3,882 11.5 -38.2°
Drops below altitude 10° 11:12:47 10° 110° (ESE) 3,934 11.7 -37.9°
Sets 11:19:45 0° 77° (ENE) 4,900 12.6 -36.8°
